This is the latest recevied weather packets stored in our database for station/object KK4EQF-12. If no packets are shown the sender has not sent any weather packets the latest 1 day(s).
| Time | Temp. | Humidity | Pressure | Rain* | Wind** | Luminosity | Snow |
|---|---|---|---|---|---|---|---|
| 1777992252 | 26.67° C | 23% | 1013.2 hPa | 0 mm | 0.45 m/s, 23° | - | - |
| 1777991951 | 26.11° C | 26% | 1013.2 hPa | 0 mm | 0.45 m/s, 50° | - | - |
| 1777991651 | 26.11° C | 20% | 1013.2 hPa | 0 mm | 0.45 m/s, 65° | - | - |
| 1777991351 | 25.56° C | 20% | 1013.2 hPa | 0 mm | 0.89 m/s, 16° | - | - |
| 1777991050 | 25.56° C | 21% | 1013.1 hPa | 0 mm | 0.89 m/s, 23° | - | - |
| 1777990750 | 25.56° C | 17% | 1013.1 hPa | 0 mm | 0.45 m/s, 19° | - | - |
| 1777990450 | 25.56° C | 9% | 1013.1 hPa | 0 mm | 0.45 m/s, 56° | - | - |
| 1777990149 | 25.56° C | 8% | 1012.9 hPa | 0 mm | 0.89 m/s, 39° | - | - |
| 1777989849 | 25° C | 11% | 1012.9 hPa | 0 mm | 0.89 m/s, 8° | - | - |
| 1777989549 | 25° C | 100% | 1012.9 hPa | 0 mm | 0.89 m/s, 79° | - | - |
| 1777989249 | 25° C | 4% | 1012.6 hPa | 0 mm | 0.89 m/s, 44° | - | - |
| 1777988948 | 24.44° C | 3% | 1012.6 hPa | 0 mm | 0.89 m/s, 13° | - | - |
| 1777988648 | 24.44° C | 100% | 1012.6 hPa | 0 mm | 0.89 m/s, 55° | - | - |
| 1777988348 | 24.44° C | 100% | 1012.5 hPa | 0 mm | 0.89 m/s, 356° | - | - |
| 1777988047 | 24.44° C | 100% | 1012.5 hPa | 0 mm | 0.89 m/s, 29° | - | - |
| 1777987747 | 23.89° C | 100% | 1012.5 hPa | 0 mm | 0.89 m/s, 31° | - | - |
| 1777987447 | 23.89° C | 100% | 1012.5 hPa | 0 mm | 0.89 m/s, 22° | - | - |
| 1777987147 | 23.89° C | 100% | 1012.5 hPa | 0 mm | 0.89 m/s, 97° | - | - |
| 1777986846 | 23.89° C | 100% | 1012.5 hPa | 0 mm | 0.89 m/s, 34° | - | - |
| 1777986546 | 23.89° C | 100% | 1012.6 hPa | 0 mm | 0.89 m/s, 18° | - | - |
| 1777986246 | 23.89° C | 100% | 1012.6 hPa | 0 mm | 0.89 m/s, 68° | - | - |
| 1777985945 | 23.33° C | 100% | 1012.6 hPa | 0 mm | 0.45 m/s, 8° | - | - |
| 1777985645 | 23.33° C | 100% | 1012.5 hPa | 0 mm | 0.45 m/s, 5° | - | - |
| 1777985345 | 23.33° C | 100% | 1012.5 hPa | 0 mm | 0.45 m/s, 19° | - | - |
| 1777985045 | 22.78° C | 100% | 1012.5 hPa | 0 mm | 0.89 m/s, 21° | - | - |
* Rain latest hour (hover to see other rain measurements)
** Current wind speed in m/s (hover to see current wind gust speed)